Location: Asheville, NC
(35.6000°N, 82.5500°W)
Time: 02:56:42
(UTC-05:00)

OTV 5 (USA 277) - Pass Details

Date: 03 January 2018
Orbit: 404 x 417 km, 43.0° (Epoch: 07 September)

Event Time Altitude Azimuth Distance (km) Brightness Sun altitude
Exits shadow 05:18:08 11° 52° (NE) 1,423 ? -28.1°
Drops below altitude 10° 05:18:15 10° 53° (NE) 1,469 ? -28.1°
Sets 05:20:23 0° 61° (ENE) 2,313 ? -27.7°
